Estación de San Javier
Ultimos registro cada 15 minutos 94
| N° | Estación | Fecha / Hora | Temperatura | Humedad | Lluvia | Velocidad | Dirección | Radiación | Presion |
| 94 | San Javier | 09-05-2026 23:30 | 8,3 | 84 | 0 | 1,3 | 355 | 0 | 1017,7 |
| 93 | San Javier | 09-05-2026 23:15 | 8,2 | 85 | 0 | 0,4 | 350 | 0 | 1017,8 |
| 92 | San Javier | 09-05-2026 23:00 | 8,4 | 84 | 0 | 0 | 5 | 0 | 1017,8 |
| 91 | San Javier | 09-05-2026 22:45 | 8,9 | 83 | 0 | 0 | 5 | 0 | 1017,8 |
| 90 | San Javier | 09-05-2026 22:30 | 9,3 | 82 | 0 | 0 | 9 | 0 | 1017,8 |
| 89 | San Javier | 09-05-2026 22:15 | 9,3 | 82 | 0 | 0 | 355 | 0 | 1018,1 |
| 88 | San Javier | 09-05-2026 22:00 | 9,3 | 81 | 0 | 0 | 5 | 0 | 1017,9 |
| 87 | San Javier | 09-05-2026 21:45 | 9,6 | 81 | 0 | 0 | 34 | 0 | 1017,7 |
| 86 | San Javier | 09-05-2026 21:30 | 9,6 | 81 | 0 | 0 | 340 | 0 | 1017,7 |
| 85 | San Javier | 09-05-2026 21:15 | 9,6 | 80 | 0 | 0 | 355 | 0 | 1017,8 |
| 84 | San Javier | 09-05-2026 21:00 | 9,6 | 80 | 0 | 0 | 63 | 0 | 1017,7 |
| 83 | San Javier | 09-05-2026 20:45 | 9,7 | 79 | 0 | 0 | 30 | 0 | 1017,6 |
| 82 | San Javier | 09-05-2026 20:30 | 9,9 | 78 | 0 | 0,9 | 5 | 0 | 1017,6 |
| 81 | San Javier | 09-05-2026 20:15 | 10,3 | 77 | 0 | 0 | 16 | 0 | 1017,4 |
| 80 | San Javier | 09-05-2026 20:00 | 10,4 | 76 | 0 | 0 | 16 | 0 | 1017,5 |
| 79 | San Javier | 09-05-2026 19:45 | 10,8 | 75 | 0 | 0 | 70 | 0 | 1017,6 |
| 78 | San Javier | 09-05-2026 19:30 | 11,3 | 73 | 0 | 0 | 70 | 0 | 1017,4 |
| 77 | San Javier | 09-05-2026 19:15 | 11,6 | 73 | 0 | 0 | 72 | 0 | 1017,3 |
| 76 | San Javier | 09-05-2026 19:00 | 12 | 72 | 0 | 0 | 33 | 0 | 1017 |
| 75 | San Javier | 09-05-2026 18:45 | 12,7 | 70 | 0 | 0 | 20 | 0 | 1016,9 |
| 74 | San Javier | 09-05-2026 18:30 | 13,3 | 68 | 0 | 0 | 20 | 0 | 1016,9 |
| 73 | San Javier | 09-05-2026 18:15 | 14,3 | 65 | 0 | 0 | 22 | 0 | 1016,7 |
| 72 | San Javier | 09-05-2026 18:00 | 15,3 | 61 | 0 | 0 | 22 | 0 | 1016,7 |
| 71 | San Javier | 09-05-2026 17:45 | 16,2 | 61 | 0 | 0 | 22 | 7 | 1016,7 |
| 70 | San Javier | 09-05-2026 17:30 | 16,9 | 57 | 0 | 0 | 26 | 14 | 1017 |
| 69 | San Javier | 09-05-2026 17:15 | 17,5 | 56 | 0 | 0 | 15 | 44 | 1016,8 |
| 68 | San Javier | 09-05-2026 17:00 | 17,9 | 56 | 0 | 0 | 335 | 88 | 1016,8 |
| 67 | San Javier | 09-05-2026 16:45 | 17,8 | 55 | 0 | 0 | 46 | 116 | 1016,7 |
| 66 | San Javier | 09-05-2026 16:30 | 17,8 | 56 | 0 | 0,9 | 12 | 160 | 1016,7 |
| 65 | San Javier | 09-05-2026 16:15 | 17,8 | 53 | 0 | 0,9 | 355 | 234 | 1016,6 |
| 64 | San Javier | 09-05-2026 16:00 | 17,8 | 55 | 0 | 0,9 | 344 | 274 | 1016,8 |
| 63 | San Javier | 09-05-2026 15:45 | 17,9 | 53 | 0 | 0,4 | 5 | 313 | 1016,9 |
| 62 | San Javier | 09-05-2026 15:30 | 17,9 | 55 | 0 | 0,9 | 34 | 346 | 1017,1 |
| 61 | San Javier | 09-05-2026 15:15 | 17,8 | 54 | 0 | 0 | 327 | 381 | 1017,1 |
| 60 | San Javier | 09-05-2026 15:00 | 17,9 | 55 | 0 | 0 | 355 | 411 | 1017 |
| 59 | San Javier | 09-05-2026 14:45 | 17,8 | 56 | 0 | 0,9 | 342 | 441 | 1017,1 |
| 58 | San Javier | 09-05-2026 14:30 | 17,6 | 53 | 0 | 0 | 71 | 469 | 1017,1 |
| 57 | San Javier | 09-05-2026 14:15 | 17,2 | 56 | 0 | 0 | 320 | 490 | 1017,2 |
| 56 | San Javier | 09-05-2026 14:00 | 16,9 | 58 | 0 | 0 | 25 | 510 | 1017,2 |
| 55 | San Javier | 09-05-2026 13:45 | 16,7 | 58 | 0 | 0,4 | 15 | 531 | 1017,6 |
| 54 | San Javier | 09-05-2026 13:15 | 16,7 | 59 | 0 | 0 | 42 | 543 | 1017,9 |
| 53 | San Javier | 09-05-2026 13:00 | 16,3 | 60 | 0 | 0 | 355 | 552 | 1017,9 |
| 52 | San Javier | 09-05-2026 12:45 | 16,1 | 64 | 0 | 0 | 355 | 554 | 1017,8 |
| 51 | San Javier | 09-05-2026 12:30 | 15,6 | 63 | 0 | 0 | 344 | 555 | 1018,2 |
| 50 | San Javier | 09-05-2026 12:15 | 14,8 | 64 | 0 | 2,2 | 5 | 552 | 1018,7 |
| 49 | San Javier | 09-05-2026 12:00 | 14,4 | 63 | 0 | 2,2 | 355 | 545 | 1018,8 |
| 48 | San Javier | 09-05-2026 11:45 | 13,8 | 68 | 0 | 0 | 347 | 534 | 1018,9 |
| 47 | San Javier | 09-05-2026 11:30 | 13,2 | 67 | 0 | 0 | 5 | 522 | 1019 |
| 46 | San Javier | 09-05-2026 11:15 | 12,8 | 71 | 0 | 0,9 | 15 | 504 | 1019,3 |
| 45 | San Javier | 09-05-2026 11:00 | 11,8 | 73 | 0 | 0 | 33 | 485 | 1019,2 |
| 44 | San Javier | 09-05-2026 10:45 | 10,9 | 76 | 0 | 0 | 121 | 462 | 1019,3 |
| 43 | San Javier | 09-05-2026 10:30 | 9,9 | 79 | 0 | 0 | 338 | 436 | 1019,3 |
| 42 | San Javier | 09-05-2026 10:15 | 9,3 | 80 | 0 | 0 | 11 | 406 | 1019,4 |
| 41 | San Javier | 09-05-2026 10:00 | 8,6 | 82 | 0 | 0,4 | 25 | 376 | 1019,5 |
| 40 | San Javier | 09-05-2026 09:45 | 8,1 | 83 | 0 | 1,3 | 78 | 343 | 1019,5 |
| 39 | San Javier | 09-05-2026 09:30 | 7,4 | 87 | 0 | 0 | 22 | 309 | 1019,6 |
| 38 | San Javier | 09-05-2026 09:15 | 6,7 | 89 | 0 | 0 | 25 | 271 | 1019,4 |
| 37 | San Javier | 09-05-2026 09:00 | 6,2 | 89 | 0 | 2,2 | 355 | 227 | 1019,4 |
| 36 | San Javier | 09-05-2026 08:45 | 5,7 | 91 | 0 | 0,4 | 5 | 186 | 1019,6 |
| 35 | San Javier | 09-05-2026 08:30 | 5,2 | 92 | 0 | 0,4 | 5 | 134 | 1020 |
| 34 | San Javier | 09-05-2026 08:15 | 4,8 | 93 | 0 | 0,4 | 324 | 98 | 1019,9 |
| 33 | San Javier | 09-05-2026 08:00 | 4,4 | 94 | 0 | 0 | 15 | 16 | 1019,8 |
| 32 | San Javier | 09-05-2026 07:45 | 4,2 | 94 | 0 | 0 | 9 | 16 | 1019,8 |
| 31 | San Javier | 09-05-2026 07:30 | 4,2 | 93 | 0 | 0 | 355 | 5 | 1019,9 |
| 30 | San Javier | 09-05-2026 07:15 | 4,3 | 93 | 0 | 0 | 18 | 0 | 1019,6 |
| 29 | San Javier | 09-05-2026 07:00 | 4,5 | 93 | 0 | 0 | 36 | 0 | 1019,9 |
| 28 | San Javier | 09-05-2026 06:45 | 4,6 | 93 | 0 | 0 | 11 | 0 | 1020,1 |
| 27 | San Javier | 09-05-2026 06:30 | 4,8 | 93 | 0 | 0,4 | 13 | 0 | 1020,1 |
| 26 | San Javier | 09-05-2026 06:15 | 4,9 | 93 | 0 | 0 | 5 | 0 | 1020,2 |
| 25 | San Javier | 09-05-2026 06:00 | 5,1 | 93 | 0 | 0 | 10 | 0 | 1020,2 |
| 24 | San Javier | 09-05-2026 05:45 | 5,2 | 93 | 0 | 0 | 66 | 0 | 1020,3 |
| 23 | San Javier | 09-05-2026 05:30 | 5,4 | 93 | 0 | 0 | 23 | 0 | 1020,4 |
| 22 | San Javier | 09-05-2026 05:15 | 5,8 | 93 | 0 | 0 | 355 | 0 | 1020,4 |
| 21 | San Javier | 09-05-2026 05:00 | 6,1 | 93 | 0 | 0 | 5 | 0 | 1020,2 |
| 20 | San Javier | 09-05-2026 04:45 | 6,5 | 92 | 0 | 0 | 42 | 0 | 1020,3 |
| 19 | San Javier | 09-05-2026 04:30 | 6,9 | 93 | 0 | 0 | 59 | 0 | 1020,5 |
| 18 | San Javier | 09-05-2026 04:15 | 7,1 | 93 | 0 | 0,4 | 5 | 0 | 1020,6 |
| 17 | San Javier | 09-05-2026 04:00 | 7,2 | 93 | 0 | 0 | 5 | 0 | 1020,7 |
| 16 | San Javier | 09-05-2026 03:45 | 7,4 | 93 | 0 | 0 | 28 | 0 | 1020,7 |
| 15 | San Javier | 09-05-2026 03:30 | 7,6 | 93 | 0 | 1,3 | 5 | 0 | 1020,8 |
| 14 | San Javier | 09-05-2026 03:15 | 7,7 | 92 | 0 | 0 | 5 | 0 | 1020,9 |
| 13 | San Javier | 09-05-2026 03:00 | 8 | 92 | 0 | 0,4 | 13 | 0 | 1020,9 |
| 12 | San Javier | 09-05-2026 02:45 | 8,3 | 92 | 0 | 0 | 348 | 0 | 1020,9 |
| 11 | San Javier | 09-05-2026 02:30 | 8,5 | 92 | 0 | 0,4 | 15 | 0 | 1021,1 |
| 10 | San Javier | 09-05-2026 02:15 | 8,6 | 92 | 0 | 0 | 5 | 0 | 1021,1 |
| 9 | San Javier | 09-05-2026 02:00 | 8,8 | 91 | 0 | 0 | 350 | 0 | 1021,1 |
| 8 | San Javier | 09-05-2026 01:45 | 9,1 | 92 | 0 | 0 | 69 | 0 | 1021,3 |
| 7 | San Javier | 09-05-2026 01:30 | 9,2 | 92 | 0 | 0 | 31 | 0 | 1021,2 |
| 6 | San Javier | 09-05-2026 01:15 | 9,4 | 93 | 0 | 0 | 15 | 0 | 1021,3 |
| 5 | San Javier | 09-05-2026 01:00 | 9,6 | 93 | 0 | 0 | 12 | 0 | 1021,3 |
| 4 | San Javier | 09-05-2026 00:45 | 9,6 | 93 | 0 | 0,9 | 344 | 0 | 1021,2 |
| 3 | San Javier | 09-05-2026 00:30 | 9,6 | 93 | 0 | 0 | 360 | 0 | 1021,2 |
| 2 | San Javier | 09-05-2026 00:15 | 9,6 | 93 | 0 | 0 | 355 | 0 | 1021,3 |
| 1 | San Javier | 09-05-2026 00:00 | 9,6 | 93 | 0 | 1,8 | 5 | 0 | 1021,4 |